Location: McDonald Observatory
(30.6717°N, 104.0221°W)
Time: 11:48:36
(UTC-05:00)

Daily predictions for brighter satellites

Satellite Brightness Start Highest point End
(mag) Time Altitude Azimuth Time Altitude Azimuth Time Altitude Azimuth
Meteor 1-18 Rocket 4.5 21:07:21 10° S 21:13:07 57° E 21:18:55 10° NNE
Helios 1B rocket 3.6 21:10:59 10° NE 21:14:22 24° E 21:17:43 10° SSE
COSMOS 2455 4.0 21:11:59 10° N 21:17:01 27° ENE 21:22:01 10° ESE
Cosmos 1455 Rocket 4.5 21:14:05 10° NNE 21:17:20 20° ENE 21:20:33 10° SE
Cosmos 1812 2.7 21:16:29 10° S 21:20:20 88° ESE 21:24:13 10° N
Abrixas 2.2 21:18:03 10° NW 21:20:46 74° NE 21:23:30 10° SE
FALCON 9 R/B 2.8 21:20:18 10° W 21:22:23 16° SW 21:23:57 10° S
Cosmos 2292 Rocket 4.4 21:20:18 10° N 21:25:33 67° E 21:32:32 10° SSE
Cosmos 1125 Rocket 4.1 21:20:48 10° NNW 21:25:59 59° WSW 21:31:07 10° S
CZ-2D R/B 3.2 21:24:22 10° SSE 21:28:10 68° ENE 21:31:58 10° N
ASTRO E2 2.7 21:29:56 10° W 21:33:56 81° N 21:37:56 10° E
Cosmos 2263 4.3 21:28:18 10° NNW 21:34:03 66° ENE 21:39:43 10° SSE
Envisat 3.7 21:29:27 10° SE 21:34:04 36° ENE 21:38:42 10° N
Cosmos 44 4.2 21:31:32 10° NW 21:35:37 41° WSW 21:39:46 10° S
Iridium 4 Rocket 3.6 21:32:46 10° N 21:37:52 68° E 21:43:24 10° S
Cosmos 1709 Rocket 4.0 21:33:54 10° N 21:40:07 66° E 21:46:13 10° SSE
Tiangong 2 1.0 21:36:58 10° WSW 21:40:09 90° N 21:43:19 10° ENE
H-2A R/B 4.0 21:38:21 10° S 21:41:52 40° W 21:45:22 10° NNW
USA 186 1.9 21:48:25 10° S 21:51:39 73° W 21:54:51 10° NNW
Aureole 1 Rocket 3.6 21:50:25 18° SE 21:52:09 25° ESE 21:54:52 10° NE
ISS -3.6 21:49:25 10° SSW 21:52:36 47° SE 21:55:47 10° NE
CZ-4B DEB 4.5 21:55:13 18° SSE 21:57:42 66° ENE 22:01:13 10° N
NOSS 2-2 (E) 4.2 21:54:07 10° SW 21:58:00 55° WNW 22:02:14 10° NNE
Meteor 2-4 Rocket 4.3 21:55:08 15° SSE 21:59:07 35° E 22:04:15 10° NNE
Cosmos 1666 4.2 21:58:50 10° NNE 22:01:34 19° ENE 22:01:55 19° E
DEBRIS 4.4 22:00:33 10° W 22:03:14 41° NNW 22:09:57 10° NE
OAO 2 Rocket 3.7 21:59:49 10° W 22:04:42 62° N 22:09:40 10° ENE
Cosmos 923 Rocket 4.0 21:59:25 10° S 22:04:44 80° ESE 22:10:04 10° NNE
Cosmos 1437 2.8 22:01:44 10° S 22:04:55 79° W 22:08:09 10° N
CZ-4B DEB 2.8 22:04:06 35° SE 22:04:59 49° ENE 22:07:53 10° N
Cosmos 1536 Rocket 3.6 22:02:38 10° S 22:06:57 82° W 22:11:17 10° N
Helios 1A 2.9 22:06:13 18° SSE 22:09:19 88° E 22:13:33 10° NNW
Meteor 1-29 3.5 22:13:19 10° N 22:16:38 56° WNW 22:19:54 10° SSW
YAOGAN 6 2.8 22:16:32 40° ESE 22:17:13 46° ENE 22:20:35 10° N
SAR-Lupe-4 3.5 22:15:36 30° S 22:17:18 87° W 22:20:53 10° NNW
SJ-11-01 4.2 22:15:19 21° SSE 22:18:25 90° NE 22:23:07 10° NNW
Cosmos 2184 Rocket 4.2 22:14:09 10° N 22:20:21 55° E 22:23:44 27° SSE
Cosmos 2074 Rocket 4.1 22:14:19 10° N 22:20:28 58° E 22:23:57 26° SSE
Meteor 1-19 Rocket 4.2 22:14:41 10° S 22:20:32 87° E 22:26:20 10° N
ERS-1 Rocket 3.3 22:21:29 32° ESE 22:23:20 46° ENE 22:28:07 10° N
Cosmos 405 Rocket 2.8 22:21:14 15° SSW 22:24:13 70° W 22:27:59 10° N
Aurora 2 Rocket 4.4 22:19:25 10° WSW 22:27:22 62° S 22:33:56 25° ESE
Meteor 1-23 Rocket 4.4 22:25:57 30° SSE 22:28:27 51° E 22:33:50 10° NNE
Cosmos 1656 Rocket 3.7 22:23:45 10° NNW 22:29:09 60° ENE 22:31:14 36° SE
Resurs 01 Rocket 4.1 22:26:10 10° SW 22:29:15 18° W 22:32:21 10° NW
Cosmos 2369 Rocket 4.1 22:25:53 10° NW 22:30:22 25° WSW 22:34:51 10° SSW
H-2A R/B 3.6 22:33:29 18° ENE 22:33:42 18° ENE 22:36:57 10° NNE
SAR-Lupe-1 4.5 22:32:55 37° SSW 22:34:05 58° W 22:37:38 10° NNW
Cosmos 1025 Rocket 3.1 22:35:24 50° ESE 22:35:40 51° E 22:39:49 10° NNE
Cosmos 1975 4.4 22:32:42 10° NNW 22:36:22 33° W 22:39:26 13° SSW
Cosmos 1441 Rocket 3.0 22:36:21 64° SSE 22:36:53 80° E 22:40:36 10° N
Cosmos 192 4.2 22:33:02 16° SSW 22:36:54 84° ESE 22:41:49 10° NNE
Cosmos 2112 Rocket 4.1 22:32:20 10° SSW 22:37:34 77° WNW 22:42:47 10° NNE
MOS 1-B Rocket 4.2 22:36:33 36° ESE 22:38:19 47° ENE 22:44:05 10° N
Cosmos 1943 Rocket 3.4 22:40:13 10° NW 22:45:16 36° WSW 22:48:53 17° SSW
Cosmos 1939 Rocket 4.1 22:43:59 23° SSW 22:45:46 35° W 22:49:19 10° NNW
SL-27 R/B 3.2 22:48:02 36° SW 22:49:13 54° WNW 22:52:49 10° N
Nadezhda 1 Rocket 4.0 22:44:24 18° S 22:49:16 82° W 22:55:41 10° N
NOAA 11 4.1 22:49:36 49° SE 22:50:59 70° ENE 22:56:24 10° N
CENTAUR R/B 3.1 22:44:39 10° NNW 22:52:50 83° ENE 22:56:31 39° SE
ARGOS 3.3 22:55:04 50° ESE 22:55:46 54° ENE 23:01:03 10° N
H-2A R/B 4.4 23:01:56 14° NE 23:01:56 14° NE 23:03:23 10° NNE
SPOT 5 2.9 23:02:18 52° NE 23:02:18 52° NE 23:06:03 10° N
COSMOS 2455 3.9 22:57:28 10° NW 23:02:57 38° WSW 23:05:38 25° SSW
Cosmos 2154 Rocket 4.0 22:57:40 10° N 23:04:00 67° E 23:05:15 55° SE
Nimbus 7 Rocket 4.3 22:58:52 10° NNE 23:04:56 73° ESE 23:06:25 52° S
Cosmos 1743 4.4 23:03:31 10° NNW 23:06:52 28° W 23:07:48 25° WSW
Cosmos 2082 Rocket 3.6 23:09:49 24° ENE 23:09:49 24° ENE 23:12:31 10° NE
Cosmos 2056 Rocket 4.4 23:05:20 10° N 23:09:30 33° ENE 23:09:30 33° ENE
Cosmos 405 4.3 23:06:39 10° N 23:08:58 38° NNW 23:08:58 38° NNW
ASTRO E2 3.9 23:10:34 10° W 23:13:07 38° W 23:13:07 38° W
Terra 3.5 23:16:05 21° NE 23:16:05 21° NE 23:18:38 10° NNE
Tiangong 2 4.0 23:15:05 10° WNW 23:17:11 16° NNW 23:17:53 15° N
ASTEX 1 4.5 23:16:01 30° SW 23:17:34 39° W 23:22:09 10° NNW
MetOp-B 4.3 23:21:22 57° SW 23:22:03 63° WSW 23:27:22 10° NNW
SPOT 1/Viking Rocket 3.6 23:24:55 68° NE 23:24:55 68° NE 23:29:39 10° N
Okean 2 4.5 23:26:10 42° WNW 23:26:10 42° WNW 23:29:38 10° N
Cosmos 1437 Rocket 4.3 23:22:43 10° N 23:24:53 32° N 23:24:53 32° N
Meteor 2-19 Rocket 4.3 23:22:05 10° N 23:28:14 79° E 23:28:27 77° ESE
ISS -0.5 23:27:29 10° WNW 23:29:16 14° NW 23:31:02 10° N
Cosmos 2341 Rocket 3.8 23:25:50 10° N 23:32:13 82° E 23:32:34 78° SE
Cosmos 2218 Rocket 4.4 23:42:25 10° N 23:47:26 48° NE 23:47:26 48° NE
Cosmos 1371 Rocket 4.5 23:44:02 10° NNW 23:48:28 57° NW 23:48:28 57° NW
OAO 2 Rocket 4.2 23:44:59 10° WNW 23:48:58 46° NNW 23:48:58 46° NNW
Cosmos 1833 Rocket 3.5 23:53:01 43° NNE 23:53:01 43° NNE 23:56:46 10° NNE
